星链-3146 (STARLINK-3146 )

导读 | 豆包AI

STARLINK-3146是美国SpaceX星链互联网卫星星座的一员,于2021年11月13日发射入轨,属于星链部署计划中的批量组网卫星。它主要服务于全球范围内高速互联网接入,尤其为偏远、基础设施薄弱区域提供网络覆盖,运行在近地轨道,通过星间链路实现全球互联,是星链星座组网建设的组成部分。

Basic Information
目录编号:
49414
目录名称:
STARLINK-3146
国际标识:
2021-104G
轨道中心:
EARTH
卫星名称:
星链-3146
卫星全名:
星链-3146 (STARLINK-3146 )
卫星状态:
在轨 (已飞行1630 天)
发射日期:
2021-11-13 UTC
国别 :
美国 (US)
星等 :
--
Orbit Information
数据来源 国际轨道数据 AOE轨道数据
星历时间 2026-04-30T17:11:19+0800
15小时前
查看轨道信息
2026-05-01T05:00:00+0800
4小时前
查看轨道信息
半长轴 6917.867km 6917.876km
偏心率 0.000134 0.0001041
轨道倾角 53.219° 53.219°
近地点辐角 89.014° 109.548°
升交点赤经 357.060° 354.850°
平近点角 271.101° 45.231°
近地点 538.803km 539.018km
远地点 540.657km 540.46km
周期 95.437分钟 95.437分钟
每日圈数 15.088447 15.088415
Detailed Information
固有亮度:
5
最大亮度:
2.5
卫星平台:
Starlink v1.5
覆盖范围:
全球
运营商:
太空探索技术公司
运营商所在国:
美国
制造商(研发单位):
太空探索技术公司
制造商所在国:
美国
使用方式:
暂无
Satellite Introduction
星链(Starlink)计划是由太空探索技术公司(SpaceX)提出的一个巨型低轨卫星互联网星座项目,计划在2019年至2024年间在太空搭建由约1.2万颗卫星组成的“星链”网络,其中1584颗将部署在地球上空550千米处的近地轨道,并从2020年开始工作。该卫星仍在工作。
2D Orbit Map
3D Orbit Map
Orbit Altitude Analysis Chart
Orbit Inclination Analysis Chart
Orbit Comprehensive Analysis Chart
View Comprehensive Chart